MDT,Max TemperatureF,Mean TemperatureF,Min TemperatureF,Max Dew PointF,MeanDew PointF,Min DewpointF,Max Humidity, Mean Humidity, Min Humidity, Max Sea Level PressureIn, Mean Sea Level PressureIn, Min Sea Level PressureIn, Max VisibilityMiles, Mean VisibilityMiles, Min VisibilityMiles, Max Wind SpeedMPH, Mean Wind SpeedMPH, Max Gust SpeedMPH,PrecipitationIn, CloudCover, Events, WindDirDegrees
2013-9-1,88,72,55,56,48,41,77,48,22,30.35,30.24,30.18,10,10,10,21,7,30,0.00,3,Rain-Thunderstorm,42
2013-9-2,83,70,57,58,53,46,88,62,27,30.36,30.31,30.22,10,10,10,24,5,28,0.00,2,Rain-Thunderstorm,179
2013-9-3,86,68,50,56,50,44,95,57,23,30.35,30.30,30.23,10,9,1,14,4,17,0.00,1,Thunderstorm,150
2013-9-4,86,68,50,48,40,33,80,39,15,30.40,30.35,30.31,10,10,10,16,6,21,0.00,1,,145
2013-9-5,86,66,45,40,35,32,77,38,15,30.41,30.37,30.31,10,10,10,13,4,21,0.00,0,,136
2013-9-6,85,65,45,44,35,31,67,36,15,30.39,30.33,30.23,10,10,10,14,4,18,0.00,0,,145
2013-9-7,85,66,47,48,41,35,75,43,19,30.33,30.27,30.19,10,10,10,14,5,22,0.00,0,,146
2013-9-8,85,65,45,48,42,36,72,43,22,30.27,30.19,30.08,10,10,10,17,5,23,0.00,1,,163
2013-9-9,83,64,46,49,44,36,81,50,19,30.17,30.12,30.04,10,10,10,18,5,24,0.00,1,,142
2013-9-10,67,58,50,59,53,44,94,82,63,30.24,30.20,30.14,10,9,3,13,5,21,0.95,6,Rain,130
2013-9-11,74,64,55,58,57,54,96,83,50,30.29,30.25,30.21,10,9,0,17,6,24,0.31,7,Fog-Rain-Thunderstorm,133
2013-9-12,67,62,58,60,57,55,95,86,68,30.31,30.26,30.22,10,9,3,21,9,28,0.20,8,Rain,131
2013-9-13,63,58,54,57,55,52,94,89,72,30.25,30.20,30.16,10,9,3,15,10,18,0.59,6,Rain,148
2013-9-14,69,60,52,56,54,49,95,83,57,30.20,30.16,30.10,10,10,2,15,5,21,0.36,6,Rain-Thunderstorm,157
2013-9-15,71,62,52,56,53,51,95,79,50,30.31,30.23,30.16,10,10,2,21,4,25,0.37,5,Rain-Thunderstorm,198
2013-9-16,69,60,50,55,53,50,95,80,57,30.37,30.31,30.26,10,10,10,13,4,16,0.00,4,Rain-Thunderstorm,155
2013-9-17,75,62,48,56,52,47,96,77,41,30.30,30.22,30.12,10,8,0,12,3,18,0.00,3,Fog-Thunderstorm,201
2013-9-18,75,64,52,61,55,51,95,78,47,30.18,30.12,30.05,10,10,7,20,6,20,0.08,2,Rain-Thunderstorm,192
2013-9-19,78,64,51,57,51,40,95,68,26,30.17,30.12,30.08,10,10,2,10,3,9,0.15,3,Rain-Thunderstorm,347
2013-9-20,71,62,52,54,51,50,94,73,48,30.26,30.23,30.17,10,10,5,17,8,25,0.00,3,,135
2013-9-21,76,64,51,55,51,45,95,71,33,30.26,30.18,30.08,10,10,0,14,4,16,0.00,4,Fog,178
2013-9-22,75,60,44,53,48,42,96,70,32,30.10,29.97,29.82,10,9,0,26,7,33,0.17,3,Fog-Rain-Thunderstorm,191
2013-9-23,68,56,43,39,34,30,80,46,25,30.22,30.05,29.93,10,10,10,28,12,34,0.00,0,,281
2013-9-24,72,55,38,45,38,32,90,60,23,30.31,30.22,30.15,10,10,10,10,5,,0.00,0,,145
2013-9-25,79,58,37,45,40,35,95,59,21,30.15,30.02,29.91,10,10,10,24,5,30,0.00,0,,207
2013-9-26,77,60,43,44,39,33,88,52,21,30.01,29.96,29.92,10,10,10,24,8,32,0.00,0,,188
2013-9-27,73,58,43,46,40,27,85,55,32,30.15,30.00,29.92,10,10,10,24,11,30,0.00,6,,255
2013-9-28,63,47,31,32,24,16,85,46,18,30.32,30.26,30.15,10,10,10,12,5,,0.00,0,,303
2013-9-29,73,50,28,32,26,18,93,49,12,30.32,30.25,30.17,10,10,10,16,5,25,0.00,0,,297
2013-9-30,78,57,36,32,27,21,69,36,12,30.17,30.11,30.04,10,10,10,22,9,31,0.00,0,,296